Location: Etiwanda
(34.1261°N, 117.5237°W)
Time: 09:52:14
(UTC+00:00)

Cosmos 2278 Rocket - Pass Details

Date: 03 August 2024
Orbit: 841 x 844 km, 71.0° (Epoch: 10 September)

Event Time Altitude Azimuth Distance (km) Brightness Sun altitude
Rises 12:08:17 0° 341° (NNW) 3,401 5.5 -11.1°
Reaches altitude 10° 12:10:45 10° 344° (NNW) 2,464 4.8 -10.6°
Maximum altitude 12:16:24 72° 68° (ENE) 886 2.5 -9.6°
Drops below altitude 10° 12:22:01 10° 153° (SSE) 2,452 4.6 -8.6°
Sets 12:24:27 0° 155° (SSE) 3,384 5.3 -8.1°
